Simultaneous Nadir Overpasses (SNOs) Predictions

Prediction of SNOs between LANDSAT-8 and METOP-B Satellite Orbit:

Table of predicted SNOs for the next 14.0 days since TLE Epoch: 12/2/2023
Index Date (LANDSAT-8) Time (LANDSAT-8) Lat,Lon (LANDSAT-8) SZA (LANDSAT-8 ) Date (METOP-B) Time (METOP-B) Lat,Lon (METOP-B) SZA (METOP-B ) Distance(km) Time Diff (sec)
1 12/04/2023 15:39:41 81.27, -12.74 105.89 12/04/2023 15:39:22 81.27, -12.60 105.90 2.40 19
2 12/04/2023 16:29:07 -81.28, 155.19 74.07 12/04/2023 16:30:02 -81.28, 155.03 74.07 2.64 55
3 12/07/2023 11:13:51 81.26, 53.62 106.19 12/07/2023 11:13:39 81.26, 53.57 106.18 0.77 12
4 12/07/2023 12:03:17 -81.28,-138.44 73.77 12/07/2023 12:04:18 -81.28,-138.39 73.73 0.89 61
5 12/10/2023 06:48:00 81.27, 120.32 106.48 12/10/2023 06:47:55 81.27, 120.36 106.48 0.70 5
6 12/10/2023 07:37:26 -81.29, -71.71 73.48 12/10/2023 07:38:34 -81.29, -71.59 73.44 2.14 68
7 12/13/2023 01:32:43 -81.26, 18.99 73.36 12/13/2023 01:31:32 -81.26, 19.06 73.38 1.32 71
8 12/13/2023 02:22:09 81.26,-173.38 106.65 12/13/2023 02:22:12 81.27,-173.40 106.65 0.56 3
9 12/15/2023 21:06:51 -81.25, 85.29 73.25 12/15/2023 21:05:49 -81.25, 85.16 73.29 2.20 62



Historial Predications of SNOs between LANDSAT-8 and METOP-B
